Location: Berduj
(43.0019°N, 22.3781°E)
Time: 03:12:44
(UTC+00:00)

Cosmos 1076 Rocket - Pass Details

Date: 19 October 2019
Orbit: 589 x 613 km, 82.5° (Epoch: 16 November)

Event Time Altitude Azimuth Distance (km) Brightness Sun altitude
Rises 16:54:44 0° 0° (N) 2,887 7.0 -14.0°
Reaches altitude 10° 16:57:10 10° 11° (N) 1,975 6.0 -14.4°
Maximum altitude 17:01:07 33° 75° (ENE) 1,041 4.2 -15.2°
Enters shadow 17:02:53 24° 118° (ESE) 1,279 4.7 -15.5°
